Location: Ariel
(45.9570°N, 122.5700°W)
Time: 21:48:14
(UTC-07:00)

Tiros 1 - All Passes

Search period start: 20 July 2019 00:00
Search period end: 30 July 2019 00:00
Orbit: 630 x 664 km, 48.4° (Epoch: 19 July)

Date Brightness Start Highest point End Pass type
(mag) Time Alt. Az. Time Alt. Az. Time Alt. Az.
20 Jul - 13:19:07 10° SSW 13:23:31 37° SE 13:27:56 10° E daylight
20 Jul - 15:00:41 10° WSW 15:05:32 83° NNW 15:10:22 10° ENE daylight
20 Jul - 16:43:12 10° WNW 16:48:00 66° N 16:52:47 10° E daylight
20 Jul - 18:25:33 10° WNW 18:30:21 72° SSW 18:35:07 10° ESE daylight
20 Jul - 20:08:26 10° W 20:12:02 21° SW 20:15:35 10° S daylight
21 Jul - 12:04:36 10° S 12:07:50 18° SE 12:11:05 10° E daylight
21 Jul - 13:44:40 10° SW 13:49:25 64° SSE 13:54:12 10° ENE daylight
21 Jul - 15:26:54 10° W 15:31:43 67° N 15:36:32 10° ENE daylight
21 Jul - 17:09:24 10° WNW 17:14:14 78° NNE 17:19:03 10° E daylight
21 Jul - 18:51:46 10° WNW 18:56:18 42° SSW 19:00:48 10° SE daylight
22 Jul - 12:29:13 10° SSW 12:33:32 34° SE 12:37:54 10° E daylight
22 Jul - 14:10:40 10° WSW 14:15:30 86° NNW 14:20:21 10° ENE daylight
22 Jul - 15:53:10 10° W 15:57:59 65° N 16:02:46 10° E daylight
22 Jul - 17:35:32 10° WNW 17:40:21 75° SSW 17:45:08 10° ESE daylight
22 Jul - 19:18:20 10° W 19:22:04 23° SW 19:25:46 10° S daylight
23 Jul - 11:14:51 10° S 11:17:53 17° SE 11:20:56 10° E daylight
23 Jul - 12:54:42 10° SW 12:59:25 61° SSE 13:04:11 10° ENE daylight
23 Jul - 14:36:53 10° W 14:41:42 68° N 14:46:31 10° ENE daylight
23 Jul - 16:19:23 10° WNW 16:24:13 76° NNE 16:29:01 10° E daylight
23 Jul - 18:01:44 10° WNW 18:06:19 45° SSW 18:10:52 10° SE daylight
23 Jul - 19:46:30 10° WSW 19:47:38 11° SW 19:48:46 10° SW daylight
24 Jul - 11:39:18 10° SSW 11:43:33 32° SE 11:47:50 10° E daylight
24 Jul - 13:20:40 10° WSW 13:25:29 88° NNW 13:30:20 10° ENE daylight
24 Jul - 15:03:09 10° W 15:07:57 65° N 15:12:45 10° E daylight
24 Jul - 16:45:31 10° WNW 16:50:20 78° SSW 16:55:09 10° ESE daylight
24 Jul - 18:28:15 10° W 18:32:06 24° SW 18:35:57 10° SSE daylight
25 Jul - 10:25:08 10° S 10:27:56 16° SE 10:30:44 10° E daylight
25 Jul - 12:04:44 10° SW 12:09:25 57° SSE 12:14:10 10° ENE daylight
25 Jul - 13:46:51 10° W 13:51:40 69° N 13:56:30 10° ENE daylight
25 Jul - 15:29:22 10° WNW 15:34:11 74° N 15:39:00 10° E daylight
25 Jul - 17:11:42 10° WNW 17:16:20 48° SSW 17:20:56 10° SE daylight
25 Jul - 18:55:57 10° WSW 18:57:41 12° SW 18:59:25 10° SSW daylight
26 Jul - 10:49:25 10° SSW 10:53:35 30° SE 10:57:47 10° E daylight
26 Jul - 12:30:39 10° WSW 12:35:28 89° SSE 12:40:19 10° ENE daylight
26 Jul - 14:13:07 10° W 14:17:55 65° N 14:22:43 10° E daylight
26 Jul - 15:55:30 10° WNW 16:00:21 82° SSW 16:05:09 10° ESE daylight
26 Jul - 17:38:09 10° W 17:42:08 26° SW 17:46:06 10° SSE daylight
27 Jul - 09:35:27 10° SSE 09:37:59 14° SE 09:40:31 10° ESE daylight
27 Jul - 11:14:46 10° SW 11:19:26 54° SSE 11:24:08 10° ENE daylight
27 Jul - 12:56:50 10° W 13:01:39 71° N 13:06:29 10° ENE daylight
27 Jul - 14:39:20 10° WNW 14:44:10 73° NNE 14:48:59 10° E daylight
27 Jul - 16:21:40 10° WNW 16:26:20 51° SSW 16:30:59 10° SE daylight
27 Jul - 18:05:35 10° WSW 18:07:45 13° SW 18:09:54 10° SSW daylight
28 Jul - 09:59:33 10° SSW 10:03:37 28° SE 10:07:43 10° E daylight
28 Jul - 11:40:39 10° WSW 11:45:27 86° SSE 11:50:18 10° ENE daylight
28 Jul - 13:23:06 10° W 13:27:53 64° N 13:32:41 10° E daylight
28 Jul - 15:05:29 10° WNW 15:10:20 85° SSW 15:15:09 10° ESE daylight
28 Jul - 16:48:05 10° W 16:52:10 28° SW 16:56:14 10° SSE daylight
29 Jul - 08:45:51 10° SSE 08:48:02 13° SE 08:50:14 10° ESE daylight
29 Jul - 10:24:49 10° SW 10:29:26 51° SSE 10:34:06 10° ENE daylight
29 Jul - 12:06:49 10° W 12:11:37 72° N 12:16:27 10° ENE daylight
29 Jul - 13:49:20 10° WNW 13:54:09 71° N 13:58:57 10° E daylight
29 Jul - 15:31:39 10° WNW 15:36:21 54° SSW 15:41:02 10° SE daylight
29 Jul - 17:15:18 10° WSW 17:17:48 14° SW 17:20:17 10° SSW daylight
